Regional Weather Roundup
Issued by NWS

Home | Current Version | Previous Version | Text Only | Print | Product List | Glossary On
Versions: 1 2 3 4 5 6 7 8 9 10 11 12 13 14 15 16 17 18 19 20 21 22 23 24 25 26 27 28 29 30 31 32 33 34 35 36 37 38 39 40 41 42 43 44 45 46 47 48 49 50
000
ASUS46 KLOX 312112
RWRCA

SOUTHERN CALIFORNIA WEATHER ROUNDUP
NATIONAL WEATHER SERVICE OXNARD CALIFORNIA
200 PM PDT THU JUL 31 2014

NOTE: "FAIR" INDICATES FEW OR NO CLOUDS BELOW 12,000 FEET WITH NO
SIGNIFICANT WEATHER AND/OR OBSTRUCTIONS TO VISIBILITY.

  -  STATIONS PRECEEDED BY AN ASTERISK (*) ARE NOT NWS OR FAA
     STATIONS AND ARE NOT SUBJECT TO NWS AND FAA QUALITY CONTROL.

CAZ041-042-087-312200-
LA AND ORANGE COUNTY COASTAL AREAS


CITY           SKY/WX    TMP DP  RH WIND       PRES   REMARKS
L.A. DOWNTOWN  FAIR      83  64  52 VRB5      29.89F
L.A. AIRPORT   FAIR      74  62  66 W12       29.91F
LONG BEACH     FAIR      82  62  50 S5        29.89F

CITY           SKY/WX    TMP DP  RH WIND       PRES   REMARKS
AVALON           N/A     72 N/A N/A MISG        N/A
FULLERTON      FAIR      85  60  42 VRB6      29.88F
*GETTY CENTER    N/A     84  61  45 S8          N/A
HAWTHORNE      FAIR      77  62  59 W13       29.91F
*LOS ALAMITOS  MOSUNNY   80  64  58 S9        29.90F
*REDONDO BEACH   N/A     75  65  69 W5        29.91S
SANTA ANA      FAIR      83  63  50 W6        29.90F
STA MONICA APT FAIR      75  61  61 SW9       29.91F
TORRANCE       MOSUNNY   79  66  65 NW17      29.90F
*UCLA            N/A    N/A N/A N/A S8        29.88F

$$

CAZ547-548-048-312200-
LA COUNTY VALLEYS AND INLAND EMPIRE


CITY           SKY/WX    TMP DP  RH WIND       PRES   REMARKS
BURBANK        FAIR      92  61  35 S9        29.89F HX  92
VAN NUYS       FAIR      95  59  30 SE10      29.89F HX  94

CITY           SKY/WX    TMP DP  RH WIND       PRES   REMARKS
CORONA AIRPORT FAIR      93  63  36 W13       29.88F HX  94
*CHATSWORTH      N/A     99  66  34 SW1       29.82F HX 103
CHINO          FAIR      97  60  29 W12G17    29.89F HX  97
*CLAREMONT       N/A     96  58  27 SW8         N/A  HX  95
MARCH AFB      FAIR      98  56  25 NW12      29.92F HX  96
*NORTHRIDGE      N/A     95  57  28 SE3G9       N/A  HX  94
ONTARIO        FAIR      96  58  27 W10G20    29.89F HX  95
*PASADENA        N/A     93  63  36 E2          N/A  HX  94
RIVERSIDE      FAIR      97  58  27 VRB7      29.88F HX  96
SAN BERNARDINO MOSUNNY   97  50  20 SW12      29.90F HX  94
*WHITEMAN AP   SUNNY     93  59  31 E9        29.93F HX  92
*WOODLAND HILL   N/A     99  59  26 NE5         N/A  HX  98

$$

CAZ054-055-312200-
LA AND SAN BERNARDINO COUNTY MOUNTAINS


CITY           SKY/WX    TMP DP  RH WIND       PRES   REMARKS
*ACTON           N/A    102  42  12 SW13        N/A  HX  97
*BIG BEAR AIRP CLOUDY    77  41  27 CALM      30.33S
*BIG PINES       N/A     84  35  17 S2          N/A
MT WILSON NWS    N/A     86  50  28 SW10        N/A
SANDBERG       PTSUNNY   90  43  19 NW20      30.15F

$$

CAZ028-029-059-060-099-312200-
ANTELOPE VALLEY AND SURROUNDING AREAS


CITY           SKY/WX    TMP DP  RH WIND       PRES   REMARKS
LANCASTER      FAIR     101  44  14 CALM      29.95F HX  97
PALMDALE       FAIR      99  42  14 CALM      29.97F HX  94

CITY           SKY/WX    TMP DP  RH WIND       PRES   REMARKS
29 PALMS       PTSUNNY  104  45  13 N5        29.97F HX 100
BARSTOW/DAGGET FAIR     103  41  12 VRB5G17   29.90F HX  98
BISHOP         FAIR      93  41  16 CALM      30.07F
CHINA LAKE     FAIR     102  45  14 VRB6      29.94F HX  98
EDWARDS AFB    MOSUNNY  100  42  13 VRB5      29.94F HX  96
MOJAVE         FAIR      99  45  15 S7        29.99F HX  94
NEEDLES        FAIR     111  45  11 VRB6      29.80F HX 106
VICTORVILLE    FAIR     100  43  14 W5        29.99F HX  96

$$

CAZ039-040-312200-
VENTURA AND SANTA BARBARA COUNTY COAST


CITY           SKY/WX    TMP DP  RH WIND       PRES   REMARKS
CAMARILLO      FAIR      78  59  51 W10       29.91F
NWS OXNARD       N/A     75  62  62 W3        29.91F
OXNARD AIRPORT FAIR      71  61  70 W17       29.92S
*POINT MUGU    FAIR      75  62  64 W15       29.92F
SBA APT/GOLETA FAIR      76  61  59 W8        29.91F
*SANTA BARBARA   N/A     83  61  47 CALM      29.98F
*VENTURA         N/A     79  61  53 SW8       29.93F

$$

CAZ044-045-312200-
VENTURA COUNTY VALLEYS


CITY           SKY/WX    TMP DP  RH WIND       PRES   REMARKS
*SIMI VALLEY     N/A     89  63  40 SW5       29.84S HX  90
*OJAI            N/A     99  61  28 W1        29.80F HX 100
*FILLMORE        N/A     93  61  34 CALM      29.78F HX  93

$$

CAZ053-312200-
VENTURA COUNTY MOUNTAINS


CITY           SKY/WX    TMP DP  RH WIND       PRES   REMARKS
*LOCKWOOD VLY    N/A     82  46  28 MISG        N/A
*ROSE VALLEY     N/A    N/A N/A N/A MISG        N/A

$$

CAZ034-035-036-312200-
CENTRAL COAST AND SANTA YNEZ VALLEY


CITY           SKY/WX    TMP DP  RH WIND       PRES   REMARKS
SAN LUIS OBISP FAIR      76  59  55 NW16      29.93F
SANTA MARIA    FAIR      73  59  61 NW13      29.96S

CITY           SKY/WX    TMP DP  RH WIND       PRES   REMARKS
*CAL POLY SLO    N/A     77  63  61 W9          N/A
*LOMPOC        FAIR      70  57  64 MISG      29.97F
*PISMO BEACH     N/A     67  61  82 W12       29.95F

$$

CAZ037-038-051-312200-
SAN LUIS OBISPO COUNTY INTERIOR AND CUYAMA VALLEY


CITY           SKY/WX    TMP DP  RH WIND       PRES   REMARKS
*CUYAMA          N/A     96  47  18 NE10      29.81F HX  92
PASO ROBLES    FAIR     103  44  13 W5        29.89F HX  98

$$

CAZ032-033-061-312200-
SOUTHERN DESERTS


CITY           SKY/WX    TMP DP  RH WIND       PRES   REMARKS
BLYTHE           N/A    N/A N/A N/A MISG      29.79F
IMPERIAL       NOT AVBL
PALM SPRINGS   PTSUNNY  107  55  18 E14       29.81F HX 106
THERMAL        FAIR     107  60  21 SE10      29.75F HX 108

$$

ELSEWHERE ACROSS THE WESTERN UNITED STATES AND MEXICO


CITY           SKY/WX    TMP DP  RH WIND       PRES   REMARKS
DENVER, CO     PTSUNNY   74  48  39 SW3       30.28F
GRAND CANYON,  FAIR      81  43  26 VRB6      30.28S
HONOLULU, HI   PTSUNNY   84  63  48 E13       30.01F
KAHULUI, MAUI  MOSUNNY   86  66  51 E15G25    30.01S
LAKE TAHOE, CA FAIR      82  41  23 NE10      30.28F
LAS VEGAS, NV  FAIR     104  45  13 SW9       29.86F HX 100
MAMMOTH LAKES, FAIR      81  39  22 E8        30.33F
MEXICO CITY, M MOSUNNY   79  41  25 CALM      30.30F
PHOENIX, AZ    PTSUNNY  107  54  17 SE8G17    29.86F HX 105
PORTLAND, OR   FAIR      86  57  37 NW8       30.00F
RENO, NV       PTSUNNY   91  42  18 NW7       30.13F
SALT LAKE CITY FAIR      84  51  31 VRB5      30.14F
SAN DIEGO, CA  PTSUNNY   80  64  58 W10       29.91F
SAN FRANCISCO, FAIR      70  58  65 NW18      29.95F
SAN JOSE, CA   FAIR      79  60  52 NW7       29.93F
SEATTLE, WA    FAIR      81  55  40 W7        30.09F
TIJUANA, MEX   MOSUNNY   81  54  39 W12       29.93S

$$

STATION/POSITION TIME  TEMP    WIND        PRES    VSBY  WAVE
                       AIR SEA DIR/SP/G                  HT/PER
                 (UTC) (F)     (DEG/KT/KT) (MB)    (MI)  (FT/S)
POINT ARGUELLO B NOT AVBL
WEST SANTA BARBA 2100   62 61  310/ 17/ 21 1013.3F         4/ 8
POINT CONCEPTION NOT AVBL
EAST SANTA BARBA 1900   64     270/ 10     1014.0
SANTA MONICA BAY 2100   66 71  340/  8/ 10 1012.8F         3/ 5


USA.gov is the U.S. government's official web portal to all federal, state and local government web resources and services.